Weather in Novhorod-Siverskyi

Ukraine / Chernihiv Region     52°00′31″N   33°16′25″E
temp.,
°C
wind,
m/s
gust,
m/s
humid.,
%
clouds,
%
prec.,
mm/h
press.,
hPa
HPBL,
m
11 may, tue
tue1100:00+7nne497824 0.0 1024154
03:00+6n4107820 0.0 1024189
06:00+7nne5117644 0.0 1023264
09:00+12nne710695 0.0 1022445
12:00+18nne710595 0.0 1021850
15:00+20ne79596 0.0 10201326
18:00+17ene8127765 0.7 10201046
21:00+10e5108691 0.8 1022551
12 may, wed
wed1200:00+7ene411940 0.0 1022260
03:00+6e5129196 0.0 1023514
06:00+7ene5118630 0.0 1023702
09:00+11e697330 0.0 1022884
12:00+13e7106699 0.4 10201513
15:00+13ese71065100 1.4 10191398
18:00+13ene4768100 0.3 10161245
21:00+9e3893100 1.7 1015353
13 may, thu
thu1300:00+8e41096100 0.2 1013279
03:00+8se389466 0.7 1012355
06:00+6se599799 0.1 1013378
09:00+10sse698483 0.1 1014800
12:00+14sse686288 0.2 10141609
15:00+14s5658100 0.3 10131449
18:00+15s466445 0.0 10131421
21:00+10se3380100 0.0 101341
14 may, fri
fri1400:00+9ese358292 0.0 101383
03:00+11e3778100 0.0 1012137
06:00+11e41096100 0.5 1011251
09:00+16se588558 1.2 1010559
12:00+20sse687235 0.8 10091227
15:00+22s6863100 2.2 10081529
18:00+20s477685 1.1 1008628
21:00+15s33885 1.1 100842
15 may, sat
sat1500:00+13ssw33904 0.0 100828
03:00+12s229138 0.0 100816
06:00+12sw249592 0.1 1008105
09:00+16sw3382100 1.1 1008526
12:00+19wsw346335 0.0 10091207
15:00+19wsw677099 3.1 10091094
18:00+18wsw567636 0.5 1009987
21:00+13wsw35913 0.6 101087